Wind_Speed
56 56 57 57 57 57 56 55 53 52 50 48 47 45 44 42 41 40 40 39 38 37 35 35 34 33 32 32 30 29 29 28 27 26 27 27 27 27 27 27 27 28 28
59 59 60 60 61 60 60 59 58 57 55 53 51 50 48 46 44 42 41 40 39 37 36 35 34 33 32 32 30 29 28 28 27 26 26 27 27 28 28 27 27 27 28
62 63 63 64 65 65 65 64 63 62 60 58 56 54 53 50 48 46 44 42 40 38 37 35 34 33 32 32 30 29 28 27 27 26 26 27 27 28 27 27 27 27 27
65 66 67 68 69 70 70 69 68 67 66 64 61 59 57 54 51 49 47 44 42 40 38 36 34 33 32 31 30 29 28 27 27 26 25 26 26 27 27 27 26 26 27
69 70 71 72 72 71 71 71 71 70 69 68 65 62 60 57 54 51 49 46 44 42 39 37 35 34 33 31 30 28 27 27 26 25 25 25 25 26 26 26 26 27 27
68 68 68 67 67 67 68 68 69 69 69 68 67 65 62 60 57 54 51 48 45 43 40 38 36 34 33 31 30 28 27 26 25 25 25 25 26 25 26 27 27 26 27
60 58 57 56 56 57 58 60 61 63 65 66 66 65 63 61 59 56 53 50 47 44 41 39 37 35 33 32 30 28 27 26 25 25 24 24 25 25 26 26 26 26 27
49 47 46 46 46 47 47 48 50 52 55 57 59 60 60 60 59 57 55 52 48 45 42 40 38 36 33 32 30 28 26 26 25 24 24 23 23 24 25 25 26 27 26
41 40 39 39 39 39 39 39 39 41 43 46 49 50 53 55 55 55 54 52 50 46 43 41 39 36 34 32 30 28 26 25 24 23 22 22 22 23 24 24 25 26 26
40 39 39 39 38 36 35 35 35 34 35 36 37 39 43 46 49 51 51 51 49 46 44 41 38 36 33 31 29 27 25 24 23 23 22 22 22 22 23 23 23 23 24
40 40 38 37 37 36 34 32 32 31 31 30 31 32 34 37 41 45 47 48 47 46 44 41 38 35 32 29 27 26 24 23 23 23 23 22 22 22 22 21 21 21 21
40 39 38 37 36 34 33 31 30 29 28 28 28 28 29 32 35 39 42 44 45 45 43 40 37 34 31 28 25 23 22 22 21 21 21 20 20 19 19 20 19 20 20
40 39 38 36 34 33 32 30 30 29 27 26 26 26 26 27 30 34 38 42 44 43 42 39 36 33 30 28 25 22 20 19 19 18 18 18 18 18 19 18 18 17 17
40 39 38 36 34 32 31 30 29 28 27 26 25 25 24 24 27 30 35 41 42 41 40 38 35 32 29 27 24 22 20 18 18 18 17 17 17 17 18 18 18 17 15
39 38 36 34 33 32 30 29 28 27 26 25 24 23 23 22 24 27 31 38 41 40 39 36 34 30 28 25 23 21 20 19 18 18 18 17 16 17 17 18 18 17 17
37 36 34 32 31 30 28 27 26 25 24 23 23 22 22 22 23 25 27 35 39 39 38 36 34 31 28 25 23 22 20 19 18 18 18 17 17 18 18 18 18 16 16
35 33 31 30 29 27 26 25 24 23 23 22 22 22 22 22 23 25 26 33 37 39 37 36 34 31 28 26 23 22 21 20 19 19 18 17 17 16 16 16 16 15 15
32 29 27 25 24 23 22 21 21 20 20 20 20 20 21 22 23 24 27 31 35 36 36 35 34 31 29 27 25 23 21 21 20 19 19 18 17 16 15 15 15 14 14
28 24 22 21 19 17 16 16 16 16 17 18 18 18 19 21 23 25 27 30 33 34 34 34 33 32 30 28 26 24 22 21 20 19 18 18 17 16 15 14 14 14 14
22 19 17 15 14 12 12 11 12 13 14 14 15 15 17 20 23 26 29 31 33 33 33 33 33 31 29 28 26 24 23 21 20 19 18 17 16 15 14 14 13 13 13
18 15 12 9 7 6 7 8 9 11 12 12 13 15 18 20 23 27 29 32 33 33 33 33 32 30 28 27 26 24 23 21 20 18 16 16 15 14 14 13 13 14 14
16 12 8 5 3 1 4 6 7 8 10 11 14 16 19 22 27 30 32 33 33 33 33 32 31 29 27 27 26 24 22 20 18 17 16 15 14 13 13 13 14 14 15
15 12 9 6 4 3 5 7 8 9 11 14 17 20 23 27 30 32 32 32 33 33 33 32 30 28 27 25 24 22 21 19 17 16 15 14 14 14 14 14 15 15 16
17 15 13 11 10 10 10 11 12 14 17 19 22 25 27 29 31 32 32 32 32 32 32 30 28 27 25 24 22 21 19 18 16 15 15 14 14 15 15 16 16 17 18
18 17 16 16 15 15 16 17 19 21 22 23 25 27 29 31 31 31 31 31 30 30 29 27 26 24 23 22 21 19 18 16 16 15 14 14 15 15 16 17 17 18 19
19 19 19 19 19 20 20 21 23 24 25 26 28 29 30 30 30 30 30 29 28 27 26 25 23 22 21 20 19 17 16 15 15 15 15 15 16 16 17 18 19 19 20
Wind_Direction
280 279 279 279 279 278 277 277 277 276 275 275 273 272 272 272 273 273 273 274 275 277 280 282 284 286 289 289 288 287 283 278 273 266 262 259 256 255 254 254 251 249 247
280 279 278 277 277 277 276 276 275 275 273 273 272 270 269 269 269 270 270 271 272 274 276 279 281 283 286 287 286 284 282 278 274 268 261 259 256 254 254 252 252 249 246
280 279 278 277 276 276 275 274 274 273 272 272 271 270 269 268 268 268 268 268 269 271 272 275 278 281 283 284 284 282 280 277 273 268 261 257 255 253 251 250 251 249 247
281 280 278 277 276 275 274 274 272 271 271 270 270 269 268 267 266 266 265 265 266 268 270 272 274 277 280 281 281 280 278 276 272 266 261 256 254 251 248 247 248 247 247
283 281 279 277 276 275 273 272 272 270 269 268 268 267 266 264 262 262 263 263 263 264 266 268 271 274 276 277 278 278 276 274 270 263 259 256 253 250 247 248 249 249 248
286 284 282 279 277 275 273 272 271 269 268 267 267 265 263 261 260 259 259 261 260 260 262 264 267 270 273 274 276 275 274 273 269 262 258 255 252 250 247 247 249 248 246
289 287 285 283 281 279 277 275 272 271 269 267 265 263 261 259 257 255 255 256 256 256 257 260 262 266 269 271 272 272 271 270 267 261 256 254 251 247 245 245 245 246 245
293 291 289 288 286 284 282 279 275 271 269 267 264 261 259 256 253 251 251 252 252 252 254 256 258 262 265 268 269 269 269 267 265 260 254 250 247 245 244 244 243 242 242
296 294 293 293 292 289 286 284 280 275 271 268 264 260 256 252 249 246 245 245 247 247 249 251 254 257 261 264 266 267 266 263 260 256 252 247 245 244 245 243 240 239 241
296 296 295 294 292 291 288 286 283 279 276 271 266 261 255 250 245 241 239 239 240 242 244 246 249 253 257 259 262 263 260 257 255 251 247 243 241 242 243 240 239 239 240
297 296 294 293 291 290 288 286 283 279 276 274 269 262 256 249 241 236 233 232 232 235 237 241 244 248 252 255 256 257 256 253 251 249 244 241 239 239 238 236 235 234 233
297 295 294 292 289 288 286 284 281 279 276 273 268 263 257 250 241 232 226 224 224 226 230 234 237 241 245 248 249 251 250 248 247 244 240 237 233 230 229 225 226 224 223
297 295 292 290 288 286 284 282 278 276 274 272 268 262 257 250 238 228 222 216 214 218 222 227 231 234 238 240 240 242 242 240 239 235 231 227 224 223 219 216 212 212 211
296 295 292 288 285 282 281 280 277 272 269 269 266 260 256 249 236 225 219 212 208 210 215 220 224 228 231 231 231 231 232 229 228 226 222 219 215 210 205 205 204 203 204
298 295 292 289 285 280 278 277 273 270 265 263 261 256 252 246 234 223 219 213 205 204 207 212 216 219 221 222 222 223 223 220 218 216 211 206 203 200 199 202 203 203 207
298 295 292 289 286 280 275 272 270 267 261 257 255 250 246 240 231 224 214 207 202 199 203 207 211 213 214 214 214 213 211 208 205 201 199 198 198 199 201 204 206 209 208
301 296 292 288 284 279 273 268 264 261 256 253 249 245 242 234 227 219 210 203 199 196 198 200 203 205 207 205 204 202 200 199 198 197 196 195 194 194 195 197 201 206 209
304 299 294 289 284 277 271 265 259 254 249 245 241 238 235 229 219 213 206 203 198 194 194 194 197 198 198 196 195 194 194 194 192 191 192 193 194 195 197 202 206 209 213
308 303 298 291 284 276 269 260 250 244 238 235 233 232 227 218 210 203 198 195 192 192 190 189 189 189 189 189 188 188 188 187 187 188 191 193 194 198 204 206 207 212 217
317 312 305 296 283 272 262 248 238 233 226 222 222 219 213 205 199 193 189 187 188 187 186 183 182 182 183 184 183 183 183 185 186 188 190 193 197 202 206 208 213 219 225
331 325 317 308 292 267 243 228 221 214 208 207 205 200 194 191 185 181 181 182 182 181 179 177 177 178 179 180 180 179 181 183 186 189 193 197 202 206 210 216 223 230 237
351 351 348 339 329 257 202 201 198 190 188 186 182 180 178 174 171 171 174 175 175 174 174 173 173 175 177 178 177 179 182 185 189 194 197 201 206 213 220 228 234 241 248
17 24 31 41 58 93 132 149 156 160 162 161 162 159 159 159 161 165 168 168 169 169 170 170 170 172 174 177 179 182 186 189 193 197 203 209 217 225 231 238 244 252 257
31 39 48 60 77 92 108 118 124 131 136 141 143 145 148 153 156 159 161 162 162 164 167 168 169 172 174 177 180 184 188 193 198 205 213 220 228 235 241 247 253 259 264
44 54 66 76 85 97 107 110 115 120 126 132 137 140 144 149 152 154 155 156 158 160 162 166 169 172 175 180 184 188 193 199 206 214 223 231 237 243 248 255 260 265 270
57 68 77 84 90 98 106 110 112 115 119 124 131 135 139 143 147 150 151 154 157 161 163 167 171 175 180 185 190 194 198 206 214 224 233 241 247 251 256 261 265 269 273
Height
5757 5754 5751 5749 5747 5745 5744 5743 5743 5742 5743 5743 5743 5744 5744 5744 5744 5744 5744 5744 5743 5743 5742 5742 5741 5740 5738 5737 5735 5734 5733 5733 5734 5736 5737 5739 5740 5743 5745 5748 5751 5754 5757
5741 5738 5735 5732 5730 5729 5728 5727 5726 5726 5727 5728 5728 5729 5730 5731 5731 5732 5732 5732 5732 5733 5733 5732 5732 5731 5730 5729 5727 5726 5726 5725 5726 5728 5729 5731 5733 5735 5738 5741 5744 5747 5750
5723 5720 5717 5714 5712 5710 5709 5709 5708 5708 5709 5710 5712 5713 5715 5716 5717 5718 5719 5720 5721 5722 5722 5723 5722 5722 5722 5721 5719 5719 5718 5718 5719 5720 5722 5723 5725 5728 5730 5733 5736 5739 5743
5704 5700 5697 5694 5691 5690 5688 5688 5688 5688 5689 5691 5693 5695 5698 5700 5702 5704 5706 5708 5709 5711 5712 5712 5713 5713 5713 5712 5712 5711 5711 5711 5711 5712 5714 5716 5717 5720 5723 5726 5729 5732 5736
5681 5677 5674 5671 5669 5667 5666 5665 5665 5666 5667 5670 5672 5675 5678 5681 5685 5688 5691 5694 5697 5699 5701 5702 5703 5704 5704 5704 5704 5703 5703 5703 5704 5705 5707 5708 5710 5712 5715 5719 5722 5726 5729
5657 5653 5649 5646 5644 5643 5642 5642 5642 5643 5644 5647 5650 5654 5658 5662 5667 5671 5675 5680 5683 5686 5689 5691 5693 5694 5695 5695 5695 5695 5695 5696 5697 5698 5700 5702 5704 5706 5709 5712 5715 5718 5722
5635 5630 5626 5623 5621 5620 5619 5619 5619 5620 5621 5624 5627 5631 5637 5642 5647 5653 5659 5664 5670 5673 5677 5680 5682 5684 5685 5686 5687 5687 5688 5689 5690 5691 5693 5695 5697 5699 5702 5705 5708 5712 5716
5616 5612 5609 5606 5603 5601 5600 5599 5599 5599 5600 5602 5605 5609 5614 5621 5627 5634 5641 5648 5655 5660 5665 5669 5672 5674 5676 5677 5679 5679 5680 5681 5683 5684 5686 5688 5690 5693 5696 5698 5701 5705 5708
5602 5598 5595 5592 5589 5587 5585 5583 5582 5581 5581 5582 5585 5589 5593 5600 5607 5615 5623 5632 5639 5646 5652 5657 5661 5664 5667 5668 5670 5671 5673 5674 5676 5677 5679 5682 5684 5687 5689 5692 5695 5699 5702
5590 5586 5583 5579 5577 5574 5572 5571 5569 5568 5568 5568 5570 5572 5576 5581 5588 5596 5605 5615 5624 5632 5639 5645 5650 5654 5657 5660 5662 5663 5665 5667 5669 5671 5673 5676 5678 5681 5684 5687 5690 5694 5697
5577 5573 5570 5567 5565 5563 5561 5560 5558 5557 5557 5557 5558 5559 5562 5567 5572 5580 5588 5599 5609 5618 5626 5633 5639 5644 5648 5651 5654 5656 5658 5660 5663 5665 5667 5670 5672 5675 5678 5682 5685 5689 5692
5564 5561 5558 5555 5553 5551 5550 5549 5548 5547 5547 5547 5548 5549 5551 5555 5559 5566 5574 5584 5595 5605 5614 5622 5629 5634 5639 5643 5646 5649 5651 5654 5656 5659 5661 5664 5667 5670 5673 5677 5680 5684 5687
5552 5548 5545 5543 5541 5539 5538 5538 5537 5537 5538 5538 5539 5540 5542 5545 5548 5554 5562 5571 5582 5593 5602 5612 5619 5625 5631 5635 5639 5643 5645 5648 5651 5654 5657 5660 5663 5666 5669 5673 5677 5680 5684
5539 5535 5532 5530 5529 5528 5527 5527 5527 5527 5528 5530 5531 5532 5534 5536 5540 5545 5552 5561 5571 5582 5593 5602 5610 5616 5623 5628 5633 5637 5640 5644 5647 5650 5653 5656 5660 5663 5666 5670 5674 5678 5682
5526 5522 5520 5517 5516 5516 5516 5516 5517 5518 5519 5521 5523 5524 5527 5529 5533 5537 5544 5553 5562 5574 5584 5593 5601 5609 5616 5622 5627 5631 5636 5639 5643 5647 5650 5654 5657 5661 5665 5669 5672 5676 5679
5513 5510 5508 5506 5505 5505 5505 5506 5507 5508 5510 5512 5515 5517 5520 5523 5526 5531 5537 5546 5555 5566 5576 5586 5595 5603 5610 5616 5622 5627 5631 5636 5640 5644 5648 5651 5655 5659 5663 5666 5670 5674 5677
5501 5498 5496 5495 5494 5494 5495 5496 5498 5500 5502 5505 5507 5510 5513 5516 5521 5526 5532 5540 5549 5560 5570 5580 5589 5598 5605 5611 5617 5623 5628 5633 5637 5641 5645 5649 5653 5657 5660 5664 5668 5671 5674
5491 5488 5486 5485 5484 5484 5485 5487 5489 5491 5494 5497 5501 5504 5507 5511 5516 5521 5528 5537 5546 5556 5566 5576 5585 5593 5601 5608 5614 5620 5625 5630 5635 5639 5644 5648 5652 5655 5659 5662 5665 5668 5671
5482 5479 5477 5476 5476 5477 5478 5479 5482 5485 5488 5491 5495 5498 5502 5506 5512 5519 5527 5535 5544 5554 5563 5573 5582 5590 5598 5605 5612 5618 5623 5629 5633 5638 5642 5646 5650 5654 5657 5660 5663 5666 5669
5475 5473 5471 5470 5471 5471 5473 5475 5477 5480 5484 5487 5491 5494 5498 5503 5510 5518 5526 5535 5544 5553 5563 5572 5580 5589 5597 5604 5610 5616 5622 5627 5632 5636 5641 5645 5648 5652 5655 5658 5661 5663 5666
5472 5470 5468 5467 5467 5468 5470 5472 5475 5478 5481 5485 5488 5492 5497 5502 5510 5517 5526 5535 5545 5554 5563 5572 5580 5588 5596 5603 5609 5616 5621 5626 5631 5635 5639 5643 5646 5649 5652 5655 5658 5660 5662
5471 5469 5467 5467 5467 5468 5469 5472 5474 5477 5480 5484 5487 5491 5497 5503 5511 5519 5528 5538 5547 5555 5564 5572 5581 5589 5596 5603 5609 5615 5621 5626 5630 5634 5638 5641 5644 5647 5650 5652 5655 5656 5658
5474 5471 5470 5469 5469 5470 5471 5473 5475 5478 5481 5485 5489 5494 5500 5507 5515 5523 5532 5541 5550 5558 5566 5574 5582 5590 5597 5603 5609 5614 5620 5625 5629 5633 5636 5640 5642 5645 5647 5649 5651 5652 5653
5478 5476 5474 5474 5473 5474 5475 5477 5479 5481 5484 5489 5494 5500 5506 5513 5521 5529 5537 5546 5554 5562 5570 5577 5585 5591 5598 5603 5609 5614 5619 5624 5628 5631 5634 5637 5639 5642 5643 5645 5646 5647 5648
5485 5482 5481 5481 5480 5481 5482 5484 5486 5488 5492 5496 5501 5507 5513 5520 5528 5536 5543 5551 5559 5567 5574 5581 5587 5593 5599 5604 5609 5614 5619 5623 5626 5629 5632 5634 5636 5638 5639 5640 5641 5641 5642
5492 5491 5490 5489 5489 5490 5491 5493 5495 5498 5502 5506 5510 5516 5522 5529 5536 5543 5551 5558 5565 5571 5578 5584 5589 5595 5600 5605 5609 5613 5618 5621 5624 5626 5629 5630 5632 5633 5634 5635 5635 5635 5635